Time,TemperatureF,DewpointF,PressureIn,WindDirection,WindDirectionDegrees,WindSpeedMPH,WindSpeedGustMPH,Humidity,HourlyPrecipIn,Conditions,Clouds,dailyrainin,SoftwareType,DateUTC
2013-03-06 00:02:00,34.0,16.3,31.84,South,178,0.0,0.0,48,0.00,NA,NA,-99.99,wxupload 3.4,2013-03-06 05:02:00,
2013-03-06 00:06:00,34.0,16.3,31.81,SSE,163,0.0,0.0,48,0.00,NA,NA,-99.99,wxupload 3.4,2013-03-06 05:06:00,
2013-03-06 00:07:00,34.0,16.8,31.81,SE,143,0.0,0.0,49,0.00,NA,NA,-99.99,wxupload 3.4,2013-03-06 05:07:00,
2013-03-06 00:10:00,34.0,16.8,31.81,SE,142,0.0,0.0,49,0.00,NA,NA,-99.99,wxupload 3.4,2013-03-06 05:10:00,
2013-03-06 00:15:00,33.8,16.6,31.81,SE,128,0.0,0.0,49,0.00,NA,NA,-99.99,wxupload 3.4,2013-03-06 05:15:00,
2013-03-06 00:21:00,33.8,17.1,31.81,ESE,114,0.0,0.0,50,0.00,NA,NA,-99.99,wxupload 3.4,2013-03-06 05:21:00,
2013-03-06 00:27:00,34.0,17.2,31.81,ESE,113,0.0,0.0,50,0.00,NA,NA,-99.99,wxupload 3.4,2013-03-06 05:27:00,
2013-03-06 00:33:00,33.8,17.1,31.81,ESE,108,0.0,0.0,50,0.00,NA,NA,-99.99,wxupload 3.4,2013-03-06 05:33:00,
2013-03-06 00:40:00,33.8,17.1,31.81,ESE,103,0.0,0.0,50,0.00,NA,NA,-99.99,wxupload 3.4,2013-03-06 05:40:00,
2013-03-06 00:45:00,33.8,17.5,31.81,ESE,108,0.0,0.0,51,0.00,NA,NA,-99.99,wxupload 3.4,2013-03-06 05:45:00,
2013-03-06 00:51:00,33.8,17.5,31.81,ESE,108,0.0,0.0,51,0.00,NA,NA,-99.99,wxupload 3.4,2013-03-06 05:51:00,
2013-03-06 00:58:00,33.6,17.4,31.81,ESE,108,0.0,0.0,51,0.00,NA,NA,-99.99,wxupload 3.4,2013-03-06 05:58:00,
2013-03-06 01:03:00,33.6,17.8,31.78,ESE,108,0.0,0.0,52,0.00,NA,NA,-99.99,wxupload 3.4,2013-03-06 06:03:00,
2013-03-06 01:10:00,33.6,17.8,31.78,ESE,108,0.0,0.0,52,0.00,NA,NA,-99.99,wxupload 3.4,2013-03-06 06:10:00,
2013-03-06 01:15:00,33.6,17.8,31.78,ESE,108,0.0,0.0,52,0.00,NA,NA,-99.99,wxupload 3.4,2013-03-06 06:15:00,
2013-03-06 01:21:00,33.6,17.8,31.78,ESE,108,0.0,0.0,52,0.00,NA,NA,-99.99,wxupload 3.4,2013-03-06 06:21:00,
2013-03-06 01:28:00,33.6,18.3,31.78,ESE,108,0.0,0.0,53,0.00,NA,NA,-99.99,wxupload 3.4,2013-03-06 06:28:00,
2013-03-06 01:33:00,33.6,18.3,31.78,ESE,108,0.0,0.0,53,0.00,NA,NA,-99.99,wxupload 3.4,2013-03-06 06:33:00,
2013-03-06 01:40:00,33.4,18.1,31.78,ESE,108,0.0,0.0,53,0.00,NA,NA,-99.99,wxupload 3.4,2013-03-06 06:40:00,
2013-03-06 01:45:00,33.4,18.1,31.78,ESE,108,0.0,0.0,53,0.00,NA,NA,-99.99,wxupload 3.4,2013-03-06 06:45:00,
2013-03-06 01:51:00,33.4,18.5,31.78,ESE,108,0.0,0.0,54,0.00,NA,NA,-99.99,wxupload 3.4,2013-03-06 06:51:00,
2013-03-06 01:58:00,33.3,18.4,31.78,ESE,108,0.0,0.0,54,0.00,NA,NA,-99.99,wxupload 3.4,2013-03-06 06:58:00,
2013-03-06 02:03:00,33.3,18.4,31.75,ESE,108,0.0,0.0,54,0.00,NA,NA,-99.99,wxupload 3.4,2013-03-06 07:03:00,
2013-03-06 02:10:00,33.3,18.8,31.75,ESE,108,0.0,0.0,55,0.00,NA,NA,-99.99,wxupload 3.4,2013-03-06 07:10:00,
2013-03-06 02:15:00,33.3,18.8,31.75,ESE,108,0.0,0.0,55,0.00,NA,NA,-99.99,wxupload 3.4,2013-03-06 07:15:00,
2013-03-06 02:21:00,33.3,18.8,31.75,ESE,108,0.0,0.0,55,0.00,NA,NA,-99.99,wxupload 3.4,2013-03-06 07:21:00,
2013-03-06 02:28:00,33.3,19.2,31.75,ESE,108,0.0,0.0,56,0.00,NA,NA,-99.99,wxupload 3.4,2013-03-06 07:28:00,
2013-03-06 02:33:00,33.3,19.2,31.75,ESE,108,0.0,0.0,56,0.00,NA,NA,-99.99,wxupload 3.4,2013-03-06 07:33:00,
2013-03-06 02:39:00,33.1,19.1,31.75,ESE,108,0.0,0.0,56,0.00,NA,NA,-99.99,wxupload 3.4,2013-03-06 07:39:00,
2013-03-06 02:45:00,33.3,19.2,31.75,ESE,108,0.0,0.0,56,0.00,NA,NA,-99.99,wxupload 3.4,2013-03-06 07:45:00,
2013-03-06 02:51:00,33.3,19.6,31.75,ESE,108,0.0,0.0,57,0.00,NA,NA,-99.99,wxupload 3.4,2013-03-06 07:51:00,
2013-03-06 02:58:00,33.3,19.6,31.75,ESE,108,0.0,0.0,57,0.00,NA,NA,-99.99,wxupload 3.4,2013-03-06 07:58:00,
2013-03-06 03:03:00,33.1,19.5,31.75,ESE,108,0.0,0.0,57,0.00,NA,NA,-99.99,wxupload 3.4,2013-03-06 08:03:00,
2013-03-06 03:09:00,33.1,19.5,31.75,ESE,108,0.0,0.0,57,0.00,NA,NA,-99.99,wxupload 3.4,2013-03-06 08:09:00,
2013-03-06 03:16:00,33.1,19.9,31.75,ESE,108,0.0,0.0,58,0.00,NA,NA,-99.99,wxupload 3.4,2013-03-06 08:16:00,
2013-03-06 03:21:00,33.1,19.9,31.75,ESE,108,0.0,0.0,58,0.00,NA,NA,-99.99,wxupload 3.4,2013-03-06 08:21:00,
2013-03-06 03:28:00,33.1,19.9,31.75,ESE,108,0.0,0.0,58,0.00,NA,NA,-99.99,wxupload 3.4,2013-03-06 08:28:00,
2013-03-06 03:33:00,33.1,20.3,31.75,ESE,108,0.0,0.0,59,0.00,NA,NA,-99.99,wxupload 3.4,2013-03-06 08:33:00,
2013-03-06 03:39:00,33.1,20.3,31.75,ESE,108,0.0,0.0,59,0.00,NA,NA,-99.99,wxupload 3.4,2013-03-06 08:39:00,
2013-03-06 03:46:00,33.1,20.3,31.75,ESE,108,0.0,0.0,59,0.00,NA,NA,-99.99,wxupload 3.4,2013-03-06 08:46:00,
2013-03-06 03:51:00,33.1,20.7,31.72,ESE,108,0.0,0.0,60,0.00,NA,NA,-99.99,wxupload 3.4,2013-03-06 08:51:00,
2013-03-06 03:58:00,33.1,20.7,31.72,ESE,108,0.0,0.0,60,0.00,NA,NA,-99.99,wxupload 3.4,2013-03-06 08:58:00,
2013-03-06 04:03:00,33.1,20.7,31.72,ESE,108,0.0,0.0,60,0.00,NA,NA,-99.99,wxupload 3.4,2013-03-06 09:03:00,
2013-03-06 04:09:00,33.1,21.1,31.72,ESE,108,0.0,0.0,61,0.00,NA,NA,-99.99,wxupload 3.4,2013-03-06 09:09:00,
2013-03-06 04:16:00,32.9,21.3,31.72,ESE,108,0.0,0.0,62,0.00,NA,NA,-99.99,wxupload 3.4,2013-03-06 09:16:00,
2013-03-06 04:21:00,32.9,21.3,31.72,ESE,108,0.0,0.0,62,0.00,NA,NA,-99.99,wxupload 3.4,2013-03-06 09:21:00,
2013-03-06 04:28:00,32.9,21.7,31.72,ESE,107,0.0,0.0,63,0.00,NA,NA,-99.99,wxupload 3.4,2013-03-06 09:28:00,
2013-03-06 04:33:00,32.9,21.7,31.72,ESE,107,0.0,0.0,63,0.00,NA,NA,-99.99,wxupload 3.4,2013-03-06 09:33:00,
2013-03-06 04:39:00,32.9,21.7,31.72,ESE,107,0.0,0.0,63,0.00,NA,NA,-99.99,wxupload 3.4,2013-03-06 09:39:00,
2013-03-06 04:46:00,32.7,21.9,31.72,ESE,107,0.0,0.0,64,0.00,NA,NA,-99.99,wxupload 3.4,2013-03-06 09:46:00,
2013-03-06 04:51:00,32.7,21.9,31.72,ESE,107,0.0,0.0,64,0.00,NA,NA,-99.99,wxupload 3.4,2013-03-06 09:51:00,
2013-03-06 04:57:00,32.7,21.9,31.72,ESE,107,0.0,0.0,64,0.00,NA,NA,-99.99,wxupload 3.4,2013-03-06 09:57:00,
2013-03-06 05:04:00,32.7,22.2,31.75,ESE,107,0.0,0.0,65,0.00,NA,NA,-99.99,wxupload 3.4,2013-03-06 10:04:00,
2013-03-06 05:09:00,32.7,22.2,31.75,ESE,107,0.0,0.0,65,0.00,NA,NA,-99.99,wxupload 3.4,2013-03-06 10:09:00,
2013-03-06 05:16:00,32.7,22.6,31.75,ESE,107,0.0,0.0,66,0.00,NA,NA,-99.99,wxupload 3.4,2013-03-06 10:16:00,
2013-03-06 05:21:00,32.7,22.6,31.75,ESE,107,0.0,0.0,66,0.00,NA,NA,-99.99,wxupload 3.4,2013-03-06 10:21:00,
2013-03-06 05:29:00,32.7,23.0,31.75,ESE,106,0.0,0.0,67,0.00,NA,NA,-99.99,wxupload 3.4,2013-03-06 10:29:00,
2013-03-06 05:35:00,32.7,23.0,31.75,ESE,107,0.0,0.0,67,0.00,NA,NA,-99.99,wxupload 3.4,2013-03-06 10:35:00,
2013-03-06 05:42:00,32.7,23.3,31.75,ESE,106,0.0,0.0,68,0.00,NA,NA,-99.99,wxupload 3.4,2013-03-06 10:42:00,
2013-03-06 05:47:00,32.7,23.3,31.75,ESE,106,0.0,0.0,68,0.00,NA,NA,-99.99,wxupload 3.4,2013-03-06 10:47:00,
2013-03-06 05:54:00,32.7,23.3,31.75,ESE,106,0.0,0.0,68,0.00,NA,NA,-99.99,wxupload 3.4,2013-03-06 10:54:00,
2013-03-06 05:59:00,32.7,23.7,31.75,ESE,106,0.0,0.0,69,0.00,NA,NA,-99.99,wxupload 3.4,2013-03-06 10:59:00,
2013-03-06 06:05:00,32.7,23.7,31.75,ESE,106,0.0,0.0,69,0.00,NA,NA,-99.99,wxupload 3.4,2013-03-06 11:05:00,
2013-03-06 06:12:00,32.7,23.7,31.75,ESE,106,0.0,0.0,69,0.00,NA,NA,-99.99,wxupload 3.4,2013-03-06 11:12:00,
2013-03-06 06:17:00,32.7,23.7,31.75,ESE,106,0.0,0.0,69,0.00,NA,NA,-99.99,wxupload 3.4,2013-03-06 11:17:00,
2013-03-06 06:23:00,32.7,24.0,31.75,ESE,107,0.0,0.0,70,0.00,NA,NA,-99.99,wxupload 3.4,2013-03-06 11:23:00,
2013-03-06 06:30:00,32.5,23.8,31.75,ESE,106,0.0,0.0,70,0.00,NA,NA,-99.99,wxupload 3.4,2013-03-06 11:30:00,
2013-03-06 06:35:00,32.7,24.0,31.75,ESE,107,0.0,0.0,70,0.00,NA,NA,-99.99,wxupload 3.4,2013-03-06 11:35:00,
2013-03-06 06:42:00,32.5,23.8,31.75,ESE,106,0.0,0.0,70,0.00,NA,NA,-99.99,wxupload 3.4,2013-03-06 11:42:00,
2013-03-06 06:47:00,32.5,24.2,31.75,ESE,106,0.0,0.0,71,0.00,NA,NA,-99.99,wxupload 3.4,2013-03-06 11:47:00,
2013-03-06 06:53:00,32.5,24.5,31.75,ESE,106,0.0,0.0,72,0.00,NA,NA,-99.99,wxupload 3.4,2013-03-06 11:53:00,
2013-03-06 07:00:00,32.5,24.5,31.75,ESE,107,0.0,0.0,72,0.00,NA,NA,-99.99,wxupload 3.4,2013-03-06 12:00:00,
2013-03-06 07:05:00,32.5,24.5,31.75,ESE,107,0.0,0.0,72,0.00,NA,NA,-99.99,wxupload 3.4,2013-03-06 12:05:00,
2013-03-06 07:12:00,32.5,24.8,31.75,ESE,107,0.0,0.0,73,0.00,NA,NA,-99.99,wxupload 3.4,2013-03-06 12:12:00,
2013-03-06 07:17:00,32.5,24.8,31.75,ESE,107,0.0,0.0,73,0.00,NA,NA,-99.99,wxupload 3.4,2013-03-06 12:17:00,
2013-03-06 07:23:00,32.5,24.8,31.75,ESE,107,0.0,0.0,73,0.00,NA,NA,-99.99,wxupload 3.4,2013-03-06 12:23:00,
2013-03-06 07:30:00,32.5,25.2,31.75,ESE,107,0.0,0.0,74,0.00,NA,NA,-99.99,wxupload 3.4,2013-03-06 12:30:00,
2013-03-06 07:35:00,32.5,25.2,31.75,ESE,107,0.0,0.0,74,0.00,NA,NA,-99.99,wxupload 3.4,2013-03-06 12:35:00,
2013-03-06 07:42:00,32.5,25.2,31.75,ESE,107,0.0,0.0,74,0.00,NA,NA,-99.99,wxupload 3.4,2013-03-06 12:42:00,
2013-03-06 07:48:00,32.5,25.2,31.75,ESE,107,0.0,0.0,74,0.00,NA,NA,-99.99,wxupload 3.4,2013-03-06 12:48:00,
2013-03-06 07:53:00,32.7,25.7,31.75,ESE,107,0.0,0.0,75,0.00,NA,NA,-99.99,wxupload 3.4,2013-03-06 12:53:00,
2013-03-06 08:00:00,32.7,25.7,31.75,ESE,107,0.0,0.0,75,0.00,NA,NA,-99.99,wxupload 3.4,2013-03-06 13:00:00,
2013-03-06 08:05:00,32.7,25.7,31.75,ESE,107,0.0,0.0,75,0.00,NA,NA,-99.99,wxupload 3.4,2013-03-06 13:05:00,
2013-03-06 08:11:00,32.7,25.7,31.75,ESE,107,0.0,0.0,75,0.00,NA,NA,-99.99,wxupload 3.4,2013-03-06 13:11:00,
2013-03-06 08:18:00,32.7,25.7,31.78,ESE,107,0.0,0.0,75,0.00,NA,NA,-99.99,wxupload 3.4,2013-03-06 13:18:00,
2013-03-06 08:23:00,32.7,26.0,31.78,North,4,0.0,0.0,76,0.00,NA,NA,-99.99,wxupload 3.4,2013-03-06 13:23:00,
2013-03-06 08:30:00,32.7,26.0,31.78,NNE,14,0.0,0.0,76,0.00,NA,NA,-99.99,wxupload 3.4,2013-03-06 13:30:00,
2013-03-06 08:35:00,32.7,26.0,31.78,North,0,0.0,0.0,76,0.00,NA,NA,-99.99,wxupload 3.4,2013-03-06 13:35:00,
2013-03-06 08:41:00,32.7,26.0,31.78,NE,51,0.0,0.0,76,0.00,NA,NA,-99.99,wxupload 3.4,2013-03-06 13:41:00,
2013-03-06 08:48:00,32.7,26.0,31.78,North,357,0.0,0.0,76,0.00,NA,NA,-99.99,wxupload 3.4,2013-03-06 13:48:00,
2013-03-06 08:53:00,32.9,26.2,31.78,NNE,24,0.0,0.0,76,0.00,NA,NA,-99.99,wxupload 3.4,2013-03-06 13:53:00,
2013-03-06 09:00:00,32.9,26.2,31.78,North,0,0.0,0.0,76,0.00,NA,NA,-99.99,wxupload 3.4,2013-03-06 14:00:00,
2013-03-06 09:06:00,32.9,26.2,31.78,NNE,31,0.0,0.0,76,0.00,NA,NA,-99.99,wxupload 3.4,2013-03-06 14:06:00,
2013-03-06 09:11:00,32.9,26.5,31.78,East,95,0.0,0.0,77,0.00,NA,NA,-99.99,wxupload 3.4,2013-03-06 14:11:00,
2013-03-06 09:18:00,32.9,26.5,31.78,NNE,26,0.0,0.0,77,0.00,NA,NA,-99.99,wxupload 3.4,2013-03-06 14:18:00,
2013-03-06 09:23:00,32.9,26.5,31.78,NE,34,0.0,0.0,77,0.00,NA,NA,-99.99,wxupload 3.4,2013-03-06 14:23:00,
2013-03-06 09:29:00,32.9,26.5,31.78,North,357,0.0,0.0,77,0.00,NA,NA,-99.99,wxupload 3.4,2013-03-06 14:29:00,
2013-03-06 09:36:00,32.9,26.5,31.78,NE,49,0.0,0.0,77,0.00,NA,NA,-99.99,wxupload 3.4,2013-03-06 14:36:00,
2013-03-06 09:41:00,32.9,26.5,31.78,NE,49,0.0,0.0,77,0.00,NA,NA,-99.99,wxupload 3.4,2013-03-06 14:41:00,
2013-03-06 09:48:00,33.1,27.0,31.78,NNE,16,0.0,0.0,78,0.00,NA,NA,-99.99,wxupload 3.4,2013-03-06 14:48:00,
2013-03-06 09:53:00,33.1,27.0,31.78,NNE,16,0.0,0.0,78,0.00,NA,NA,-99.99,wxupload 3.4,2013-03-06 14:53:00,
2013-03-06 09:59:00,33.1,27.0,31.78,NNE,21,0.0,0.0,78,0.00,NA,NA,-99.99,wxupload 3.4,2013-03-06 14:59:00,
2013-03-06 10:06:00,33.1,27.3,31.78,ENE,72,0.0,0.0,79,0.00,NA,NA,-99.99,wxupload 3.4,2013-03-06 15:06:00,
2013-03-06 10:11:00,33.1,27.3,31.78,NE,46,0.0,0.0,79,0.00,NA,NA,-99.99,wxupload 3.4,2013-03-06 15:11:00,
2013-03-06 10:18:00,33.1,27.3,31.78,NE,44,0.0,0.0,79,0.00,NA,NA,-99.99,wxupload 3.4,2013-03-06 15:18:00,
2013-03-06 10:24:00,33.1,27.3,31.78,NNE,16,0.0,0.0,79,0.00,NA,NA,-99.99,wxupload 3.4,2013-03-06 15:24:00,
2013-03-06 10:29:00,33.1,27.6,31.78,NNE,33,0.0,0.0,80,0.00,NA,NA,-99.99,wxupload 3.4,2013-03-06 15:29:00,
2013-03-06 10:36:00,33.1,27.6,31.81,NE,35,0.0,0.0,80,0.00,NA,NA,-99.99,wxupload 3.4,2013-03-06 15:36:00,
2013-03-06 10:41:00,33.1,27.6,31.81,NNE,22,0.0,0.0,80,0.00,NA,NA,-99.99,wxupload 3.4,2013-03-06 15:41:00,
2013-03-06 10:47:00,33.1,27.6,31.81,NNE,28,0.0,0.0,80,0.00,NA,NA,-99.99,wxupload 3.4,2013-03-06 15:47:00,
2013-03-06 10:54:00,33.1,27.9,31.81,NE,52,0.0,6.0,81,0.00,NA,NA,-99.99,wxupload 3.4,2013-03-06 15:54:00,
2013-03-06 10:59:00,33.1,27.9,31.81,NE,38,3.0,5.0,81,0.00,NA,NA,-99.99,wxupload 3.4,2013-03-06 15:59:00,
2013-03-06 11:06:00,33.3,28.4,31.81,North,353,0.0,6.0,82,0.00,NA,NA,-99.99,wxupload 3.4,2013-03-06 16:06:00,
2013-03-06 11:12:00,33.3,28.4,31.81,NW,315,0.0,0.0,82,0.00,NA,NA,-99.99,wxupload 3.4,2013-03-06 16:12:00,
2013-03-06 11:17:00,33.3,28.7,31.81,NNE,29,4.0,6.0,83,0.00,NA,NA,-99.99,wxupload 3.4,2013-03-06 16:17:00,
2013-03-06 11:24:00,33.3,28.7,31.81,NE,34,3.0,5.0,83,0.00,NA,NA,-99.99,wxupload 3.4,2013-03-06 16:24:00,
2013-03-06 11:29:00,33.3,29.0,31.81,NNW,344,2.0,6.0,84,0.00,NA,NA,-99.99,wxupload 3.4,2013-03-06 16:29:00,
2013-03-06 11:36:00,33.3,29.0,31.81,NNE,18,2.0,6.0,84,0.00,NA,NA,-99.99,wxupload 3.4,2013-03-06 16:36:00,
2013-03-06 11:42:00,33.3,29.0,31.81,North,357,3.0,6.0,84,0.00,NA,NA,-99.99,wxupload 3.4,2013-03-06 16:42:00,
2013-03-06 11:47:00,33.3,29.0,31.84,NE,42,4.0,7.0,84,0.00,NA,NA,-99.99,wxupload 3.4,2013-03-06 16:47:00,
2013-03-06 11:54:00,33.3,29.2,31.84,NNE,27,4.0,5.0,85,0.00,NA,NA,-99.99,wxupload 3.4,2013-03-06 16:54:00,
2013-03-06 11:59:00,33.3,29.2,31.84,NE,48,4.0,6.0,85,0.00,NA,NA,-99.99,wxupload 3.4,2013-03-06 16:59:00,
2013-03-06 12:05:00,33.3,29.2,31.84,NE,44,4.0,6.0,85,0.00,NA,NA,-99.99,wxupload 3.4,2013-03-06 17:05:00,
2013-03-06 12:12:00,33.3,29.2,31.84,NE,37,3.0,5.0,85,0.00,NA,NA,-99.99,wxupload 3.4,2013-03-06 17:12:00,
2013-03-06 12:17:00,33.3,29.2,31.84,NNE,14,3.0,7.0,85,0.00,NA,NA,-99.99,wxupload 3.4,2013-03-06 17:17:00,
2013-03-06 12:24:00,33.1,29.1,31.84,NE,43,2.0,5.0,85,0.00,NA,NA,-99.99,wxupload 3.4,2013-03-06 17:24:00,
2013-03-06 12:30:00,33.1,29.4,31.84,NNE,20,2.0,5.0,86,0.00,NA,NA,-99.99,wxupload 3.4,2013-03-06 17:30:00,
2013-03-06 12:35:00,33.1,29.4,31.84,NNE,31,5.0,5.0,86,0.00,NA,NA,-99.99,wxupload 3.4,2013-03-06 17:35:00,
2013-03-06 12:42:00,32.9,29.2,31.84,NNW,346,3.0,6.0,86,0.00,NA,NA,-99.99,wxupload 3.4,2013-03-06 17:42:00,
2013-03-06 12:47:00,32.9,29.2,31.87,NNW,344,4.0,5.0,86,0.00,NA,NA,-99.99,wxupload 3.4,2013-03-06 17:47:00,
2013-03-06 12:53:00,32.9,29.5,31.87,NNE,20,0.0,3.0,87,0.00,NA,NA,-99.99,wxupload 3.4,2013-03-06 17:53:00,
2013-03-06 13:00:00,32.9,29.5,31.87,NE,38,0.0,6.0,87,0.00,NA,NA,-99.99,wxupload 3.4,2013-03-06 18:00:00,
2013-03-06 13:05:00,33.1,29.6,31.87,NE,35,5.0,6.0,87,0.00,NA,NA,-99.99,wxupload 3.4,2013-03-06 18:05:00,
2013-03-06 13:12:00,33.3,30.1,31.87,North,0,3.0,6.0,88,0.00,NA,NA,-99.99,wxupload 3.4,2013-03-06 18:12:00,
2013-03-06 13:17:00,33.4,30.3,31.87,North,10,3.0,4.0,88,0.00,NA,NA,-99.99,wxupload 3.4,2013-03-06 18:17:00,
2013-03-06 13:23:00,33.6,30.7,31.87,NE,43,7.0,7.0,89,0.00,NA,NA,-99.99,wxupload 3.4,2013-03-06 18:23:00,
2013-03-06 13:30:00,33.8,30.6,31.87,NE,45,4.0,7.0,88,0.00,NA,NA,-99.99,wxupload 3.4,2013-03-06 18:30:00,
2013-03-06 13:35:00,34.2,31.0,31.87,NE,35,3.0,6.0,88,0.00,NA,NA,-99.99,wxupload 3.4,2013-03-06 18:35:00,
2013-03-06 13:42:00,34.3,31.2,31.87,NNE,24,3.0,4.0,88,0.00,NA,NA,-99.99,wxupload 3.4,2013-03-06 18:42:00,
2013-03-06 13:48:00,34.5,31.3,31.87,NE,36,6.0,9.0,88,0.00,NA,NA,-99.99,wxupload 3.4,2013-03-06 18:48:00,
2013-03-06 13:53:00,34.5,31.3,31.87,North,8,4.0,10.0,88,0.00,NA,NA,-99.99,wxupload 3.4,2013-03-06 18:53:00,
2013-03-06 14:00:00,34.5,31.3,31.87,NNE,29,2.0,8.0,88,0.00,NA,NA,-99.99,wxupload 3.4,2013-03-06 19:00:00,
2013-03-06 14:05:00,34.7,31.5,31.87,North,4,4.0,6.0,88,0.00,NA,NA,-99.99,wxupload 3.4,2013-03-06 19:05:00,
2013-03-06 14:11:00,34.7,31.5,31.87,NE,50,4.0,4.0,88,0.00,NA,NA,-99.99,wxupload 3.4,2013-03-06 19:11:00,
2013-03-06 14:18:00,34.9,32.0,31.87,North,353,4.0,4.0,89,0.00,NA,NA,-99.99,wxupload 3.4,2013-03-06 19:18:00,
2013-03-06 14:23:00,34.9,32.0,31.87,North,11,3.0,8.0,89,0.00,NA,NA,-99.99,wxupload 3.4,2013-03-06 19:23:00,
2013-03-06 14:30:00,35.1,32.2,31.87,SE,131,0.0,6.0,89,0.00,NA,NA,-99.99,wxupload 3.4,2013-03-06 19:30:00,
2013-03-06 14:36:00,35.1,32.2,31.90,NNE,12,4.0,5.0,89,0.00,NA,NA,-99.99,wxupload 3.4,2013-03-06 19:36:00,
2013-03-06 14:41:00,35.2,32.3,31.90,North,357,4.0,5.0,89,0.00,NA,NA,-99.99,wxupload 3.4,2013-03-06 19:41:00,
2013-03-06 14:48:00,35.4,32.5,31.90,West,270,5.0,9.0,89,0.00,NA,NA,-99.99,wxupload 3.4,2013-03-06 19:48:00,
2013-03-06 14:53:00,35.6,32.7,31.90,NW,316,4.0,11.0,89,0.00,NA,NA,-99.99,wxupload 3.4,2013-03-06 19:53:00,
2013-03-06 14:59:00,35.8,32.9,31.90,North,357,5.0,5.0,89,0.00,NA,NA,-99.99,wxupload 3.4,2013-03-06 19:59:00,
2013-03-06 15:06:00,35.8,33.1,31.90,NW,317,4.0,6.0,90,0.00,NA,NA,-99.99,wxupload 3.4,2013-03-06 20:06:00,
2013-03-06 15:11:00,36.0,33.3,31.90,NW,311,5.0,5.0,90,0.00,NA,NA,-99.99,wxupload 3.4,2013-03-06 20:11:00,
2013-03-06 15:18:00,36.1,33.8,31.92,West,272,4.0,8.0,91,0.00,NA,NA,-99.99,wxupload 3.4,2013-03-06 20:18:00,
2013-03-06 15:24:00,36.1,33.8,31.92,NNW,342,0.0,4.0,91,0.00,NA,NA,-99.99,wxupload 3.4,2013-03-06 20:24:00,
2013-03-06 15:29:00,36.3,34.0,31.92,NNE,17,0.0,0.0,91,0.00,NA,NA,-99.99,wxupload 3.4,2013-03-06 20:29:00,
2013-03-06 15:36:00,36.3,33.7,31.92,NE,42,2.0,5.0,90,0.00,NA,NA,-99.99,wxupload 3.4,2013-03-06 20:36:00,
2013-03-06 15:41:00,36.7,33.8,31.92,NNE,30,5.0,8.0,89,0.00,NA,NA,-99.99,wxupload 3.4,2013-03-06 20:41:00,
2013-03-06 15:48:00,37.0,34.1,31.92,NE,42,0.0,0.0,89,0.00,NA,NA,-99.99,wxupload 3.4,2013-03-06 20:48:00,
2013-03-06 15:54:00,37.2,34.0,31.92,NNW,345,0.0,0.0,88,0.00,NA,NA,-99.99,wxupload 3.4,2013-03-06 20:54:00,
2013-03-06 15:59:00,37.2,34.0,31.92,NE,48,3.0,8.0,88,0.00,NA,NA,-99.99,wxupload 3.4,2013-03-06 20:59:00,
2013-03-06 16:06:00,37.4,33.3,31.92,NNW,335,3.0,5.0,85,0.00,NA,NA,-99.99,wxupload 3.4,2013-03-06 21:06:00,
2013-03-06 16:11:00,37.4,32.7,31.92,NNE,31,2.0,6.0,83,0.00,NA,NA,-99.99,wxupload 3.4,2013-03-06 21:11:00,
2013-03-06 16:17:00,37.6,32.3,31.95,NW,317,3.0,4.0,81,0.00,NA,NA,-99.99,wxupload 3.4,2013-03-06 21:17:00,
2013-03-06 16:24:00,37.6,31.4,31.95,NNW,343,3.0,8.0,78,0.00,NA,NA,-99.99,wxupload 3.4,2013-03-06 21:24:00,
2013-03-06 16:29:00,37.6,30.7,31.95,NNW,348,0.0,0.0,76,0.00,NA,NA,-99.99,wxupload 3.4,2013-03-06 21:29:00,
2013-03-06 16:36:00,37.6,30.7,31.95,NNE,18,7.0,12.0,76,0.00,NA,NA,-99.99,wxupload 3.4,2013-03-06 21:36:00,
2013-03-06 16:42:00,37.8,28.9,31.95,ENE,65,4.0,11.0,70,0.00,NA,NA,-99.99,wxupload 3.4,2013-03-06 21:42:00,
2013-03-06 16:47:00,37.9,29.0,31.95,NNE,21,2.0,0.0,70,0.00,NA,NA,-99.99,wxupload 3.4,2013-03-06 21:47:00,
2013-03-06 16:54:00,37.9,29.0,31.95,NW,307,3.0,5.0,70,0.00,NA,NA,-99.99,wxupload 3.4,2013-03-06 21:54:00,
2013-03-06 16:59:00,38.1,29.2,31.95,NW,319,2.0,5.0,70,0.00,NA,NA,-99.99,wxupload 3.4,2013-03-06 21:59:00,
2013-03-06 17:05:00,37.9,29.0,31.95,NW,324,0.0,0.0,70,0.00,NA,NA,-99.99,wxupload 3.4,2013-03-06 22:05:00,
2013-03-06 17:12:00,37.6,29.0,31.95,NNE,14,0.0,0.0,71,0.00,NA,NA,-99.99,wxupload 3.4,2013-03-06 22:12:00,
2013-03-06 17:17:00,37.4,28.9,31.95,NNE,24,0.0,6.0,71,0.00,NA,NA,-99.99,wxupload 3.4,2013-03-06 22:17:00,
2013-03-06 17:24:00,37.2,28.7,31.95,NE,35,0.0,0.0,71,0.00,NA,NA,-99.99,wxupload 3.4,2013-03-06 22:24:00,
2013-03-06 17:30:00,37.0,28.5,31.95,North,353,0.0,0.0,71,0.00,NA,NA,-99.99,wxupload 3.4,2013-03-06 22:30:00,
2013-03-06 17:35:00,36.9,28.3,31.98,NNE,22,0.0,0.0,71,0.00,NA,NA,-99.99,wxupload 3.4,2013-03-06 22:35:00,
2013-03-06 17:42:00,36.9,28.0,31.98,NNW,330,0.0,0.0,70,0.00,NA,NA,-99.99,wxupload 3.4,2013-03-06 22:42:00,
2013-03-06 17:47:00,36.9,27.3,31.98,NNE,28,0.0,0.0,68,0.00,NA,NA,-99.99,wxupload 3.4,2013-03-06 22:47:00,
2013-03-06 17:53:00,36.9,26.2,31.98,NNE,27,3.0,3.0,65,0.00,NA,NA,-99.99,wxupload 3.4,2013-03-06 22:53:00,
2013-03-06 18:00:00,36.9,23.9,31.98,NNE,17,4.0,8.0,59,0.00,NA,NA,-99.99,wxupload 3.4,2013-03-06 23:00:00,
2013-03-06 18:05:00,36.7,22.9,31.98,NE,35,4.0,6.0,57,0.00,NA,NA,-99.99,wxupload 3.4,2013-03-06 23:05:00,
2013-03-06 18:12:00,36.5,21.9,31.98,North,4,4.0,8.0,55,0.00,NA,NA,-99.99,wxupload 3.4,2013-03-06 23:12:00,
2013-03-06 18:18:00,36.9,20.9,31.98,North,4,0.0,0.0,52,0.00,NA,NA,-99.99,wxupload 3.4,2013-03-06 23:18:00,
2013-03-06 18:23:00,36.9,20.9,31.98,NE,50,2.0,8.0,52,0.00,NA,NA,-99.99,wxupload 3.4,2013-03-06 23:23:00,
2013-03-06 18:30:00,36.7,20.7,31.98,NNW,341,0.0,0.0,52,0.00,NA,NA,-99.99,wxupload 3.4,2013-03-06 23:30:00,
2013-03-06 18:35:00,36.3,20.4,31.98,North,353,2.0,6.0,52,0.00,NA,NA,-99.99,wxupload 3.4,2013-03-06 23:35:00,
2013-03-06 18:42:00,36.7,20.2,31.98,WSW,258,2.0,6.0,51,0.00,NA,NA,-99.99,wxupload 3.4,2013-03-06 23:42:00,
2013-03-06 18:48:00,36.5,19.6,32.01,North,10,3.0,6.0,50,0.00,NA,NA,-99.99,wxupload 3.4,2013-03-06 23:48:00,
2013-03-06 18:53:00,36.7,19.8,32.01,NW,321,3.0,3.0,50,0.00,NA,NA,-99.99,wxupload 3.4,2013-03-06 23:53:00,
2013-03-06 19:00:00,36.3,19.9,32.01,NNW,333,0.0,0.0,51,0.00,NA,NA,-99.99,wxupload 3.4,2013-03-07 00:00:00,
2013-03-06 19:06:00,36.3,19.4,32.01,North,1,3.0,9.0,50,0.00,NA,NA,-99.99,wxupload 3.4,2013-03-07 00:06:00,
2013-03-06 19:11:00,36.3,19.4,32.01,NW,325,0.0,0.0,50,0.00,NA,NA,-99.99,wxupload 3.4,2013-03-07 00:11:00,
2013-03-06 19:18:00,36.3,19.4,32.01,NNE,14,0.0,3.0,50,0.00,NA,NA,-99.99,wxupload 3.4,2013-03-07 00:18:00,
2013-03-06 19:23:00,36.5,19.1,32.01,North,353,0.0,3.0,49,0.00,NA,NA,-99.99,wxupload 3.4,2013-03-07 00:23:00,
2013-03-06 19:30:00,36.5,19.1,32.01,North,3,0.0,0.0,49,0.00,NA,NA,-99.99,wxupload 3.4,2013-03-07 00:30:00,
2013-03-06 19:36:00,36.3,19.0,32.01,NE,47,0.0,0.0,49,0.00,NA,NA,-99.99,wxupload 3.4,2013-03-07 00:36:00,
2013-03-06 19:41:00,36.3,19.0,32.01,NNW,336,0.0,2.0,49,0.00,NA,NA,-99.99,wxupload 3.4,2013-03-07 00:41:00,
2013-03-06 19:48:00,36.3,19.0,32.01,NNE,20,0.0,0.0,49,0.00,NA,NA,-99.99,wxupload 3.4,2013-03-07 00:48:00,
2013-03-06 19:54:00,36.3,18.5,32.01,NNE,15,0.0,4.0,48,0.00,NA,NA,-99.99,wxupload 3.4,2013-03-07 00:54:00,
2013-03-06 19:59:00,36.5,18.1,32.01,North,353,3.0,3.0,47,0.00,NA,NA,-99.99,wxupload 3.4,2013-03-07 00:59:00,
2013-03-06 20:06:00,36.3,18.0,32.01,NNW,334,2.0,4.0,47,0.00,NA,NA,-99.99,wxupload 3.4,2013-03-07 01:06:00,
2013-03-06 20:11:00,36.3,18.0,32.01,NNW,339,0.0,0.0,47,0.00,NA,NA,-99.99,wxupload 3.4,2013-03-07 01:11:00,
2013-03-06 20:18:00,36.1,18.3,32.01,NW,322,0.0,0.0,48,0.00,NA,NA,-99.99,wxupload 3.4,2013-03-07 01:18:00,
2013-03-06 20:24:00,36.1,18.3,32.01,NNW,342,0.0,0.0,48,0.00,NA,NA,-99.99,wxupload 3.4,2013-03-07 01:24:00,
2013-03-06 20:29:00,36.1,17.8,32.01,NNW,346,3.0,4.0,47,0.00,NA,NA,-99.99,wxupload 3.4,2013-03-07 01:29:00,
2013-03-06 20:36:00,36.3,18.0,32.01,NNW,336,0.0,4.0,47,0.00,NA,NA,-99.99,wxupload 3.4,2013-03-07 01:36:00,
2013-03-06 20:42:00,36.1,17.8,32.01,NNW,336,0.0,0.0,47,0.00,NA,NA,-99.99,wxupload 3.4,2013-03-07 01:42:00,
2013-03-06 20:47:00,35.8,18.0,32.01,NNW,331,2.0,0.0,48,0.00,NA,NA,-99.99,wxupload 3.4,2013-03-07 01:47:00,
2013-03-06 20:54:00,36.0,17.6,32.01,NNW,341,0.0,4.0,47,0.00,NA,NA,-99.99,wxupload 3.4,2013-03-07 01:54:00,
2013-03-06 20:59:00,36.3,17.5,32.01,North,353,0.0,0.0,46,0.00,NA,NA,-99.99,wxupload 3.4,2013-03-07 01:59:00,
2013-03-06 21:06:00,36.1,17.3,32.04,NNE,12,0.0,3.0,46,0.00,NA,NA,-99.99,wxupload 3.4,2013-03-07 02:06:00,
2013-03-06 21:12:00,36.3,17.5,32.04,WNW,294,0.0,4.0,46,0.00,NA,NA,-99.99,wxupload 3.4,2013-03-07 02:12:00,
2013-03-06 21:17:00,36.1,17.3,32.04,NNW,337,2.0,0.0,46,0.00,NA,NA,-99.99,wxupload 3.4,2013-03-07 02:17:00,
2013-03-06 21:24:00,36.1,17.3,32.04,NNE,33,0.0,0.0,46,0.00,NA,NA,-99.99,wxupload 3.4,2013-03-07 02:24:00,
2013-03-06 21:30:00,36.3,17.5,32.04,NW,307,0.0,4.0,46,0.00,NA,NA,-99.99,wxupload 3.4,2013-03-07 02:30:00,
2013-03-06 21:35:00,36.3,17.0,32.04,NNW,341,2.0,4.0,45,0.00,NA,NA,-99.99,wxupload 3.4,2013-03-07 02:35:00,
2013-03-06 21:42:00,36.7,16.8,32.04,NNW,330,0.0,4.0,44,0.00,NA,NA,-99.99,wxupload 3.4,2013-03-07 02:42:00,
2013-03-06 21:47:00,36.9,16.4,32.04,NW,320,0.0,4.0,43,0.00,NA,NA,-99.99,wxupload 3.4,2013-03-07 02:47:00,
2013-03-06 21:54:00,36.5,16.6,32.04,NW,314,0.0,0.0,44,0.00,NA,NA,-99.99,wxupload 3.4,2013-03-07 02:54:00,
2013-03-06 22:00:00,36.3,16.4,32.04,NW,326,0.0,3.0,44,0.00,NA,NA,-99.99,wxupload 3.4,2013-03-07 03:00:00,
2013-03-06 22:05:00,36.5,16.6,32.04,NNW,333,0.0,4.0,44,0.00,NA,NA,-99.99,wxupload 3.4,2013-03-07 03:05:00,
2013-03-06 22:12:00,36.7,15.7,32.04,NNW,342,0.0,3.0,42,0.00,NA,NA,-99.99,wxupload 3.4,2013-03-07 03:12:00,
2013-03-06 22:18:00,36.7,16.2,32.04,NNW,340,0.0,2.0,43,0.00,NA,NA,-99.99,wxupload 3.4,2013-03-07 03:18:00,
2013-03-06 22:23:00,36.5,16.1,32.04,NNE,17,0.0,5.0,43,0.00,NA,NA,-99.99,wxupload 3.4,2013-03-07 03:23:00,
2013-03-06 22:30:00,36.7,15.7,32.04,NE,35,2.0,4.0,42,0.00,NA,NA,-99.99,wxupload 3.4,2013-03-07 03:30:00,
2013-03-06 22:35:00,36.7,15.7,32.04,NNW,329,0.0,0.0,42,0.00,NA,NA,-99.99,wxupload 3.4,2013-03-07 03:35:00,
2013-03-06 22:42:00,36.3,15.9,32.04,North,353,0.0,0.0,43,0.00,NA,NA,-99.99,wxupload 3.4,2013-03-07 03:42:00,
2013-03-06 22:48:00,36.5,15.5,32.04,NNE,21,0.0,0.0,42,0.00,NA,NA,-99.99,wxupload 3.4,2013-03-07 03:48:00,
2013-03-06 22:53:00,36.5,15.5,32.04,NE,43,0.0,0.0,42,0.00,NA,NA,-99.99,wxupload 3.4,2013-03-07 03:53:00,
2013-03-06 23:00:00,36.5,15.5,32.04,North,6,0.0,0.0,42,0.00,NA,NA,-99.99,wxupload 3.4,2013-03-07 04:00:00,
2013-03-06 23:06:00,36.3,15.9,32.04,North,0,0.0,0.0,43,0.00,NA,NA,-99.99,wxupload 3.4,2013-03-07 04:06:00,
2013-03-06 23:11:00,36.3,15.9,32.04,NNE,13,0.0,0.0,43,0.00,NA,NA,-99.99,wxupload 3.4,2013-03-07 04:11:00,
2013-03-06 23:18:00,36.1,15.7,32.07,NE,39,0.0,0.0,43,0.00,NA,NA,-99.99,wxupload 3.4,2013-03-07 04:18:00,
2013-03-06 23:23:00,36.1,15.7,32.07,NNW,344,0.0,0.0,43,0.00,NA,NA,-99.99,wxupload 3.4,2013-03-07 04:23:00,
2013-03-06 23:30:00,36.3,15.9,32.07,NNE,16,0.0,0.0,43,0.00,NA,NA,-99.99,wxupload 3.4,2013-03-07 04:30:00,
2013-03-06 23:36:00,36.3,15.9,32.04,North,357,0.0,0.0,43,0.00,NA,NA,-99.99,wxupload 3.4,2013-03-07 04:36:00,
2013-03-06 23:41:00,36.5,15.5,32.04,NE,41,0.0,0.0,42,0.00,NA,NA,-99.99,wxupload 3.4,2013-03-07 04:41:00,
2013-03-06 23:48:00,36.3,15.9,32.04,North,5,0.0,0.0,43,0.00,NA,NA,-99.99,wxupload 3.4,2013-03-07 04:48:00,
2013-03-06 23:54:00,36.1,15.7,32.04,NNE,25,0.0,3.0,43,0.00,NA,NA,-99.99,wxupload 3.4,2013-03-07 04:54:00,
2013-03-06 23:59:00,36.3,15.4,32.04,NNW,330,0.0,0.0,42,0.00,NA,NA,-99.99,wxupload 3.4,2013-03-07 04:59:00,